TimeCST,TemperatureF,Dew PointF,Humidity,Sea Level PressureIn,VisibilityMPH,Wind Direction,Wind SpeedMPH,Gust SpeedMPH,PrecipitationIn,Events,Conditions,WindDirDegrees,DateUTC
12:55 AM,52.7,45.9,78,30.12,10.0,North,15.0,-,N/A,,Partly Cloudy,360,2011-11-10 06:55:00
1:55 AM,52.0,44.2,75,30.13,10.0,North,17.3,27.6,N/A,,Clear,360,2011-11-10 07:55:00
2:55 AM,50.9,43.0,74,30.14,10.0,North,17.3,23.0,N/A,,Mostly Cloudy,10,2011-11-10 08:55:00
3:55 AM,50.4,42.3,74,30.14,10.0,North,21.9,29.9,N/A,,Mostly Cloudy,360,2011-11-10 09:55:00
4:55 AM,49.8,41.0,72,30.16,10.0,North,17.3,24.2,N/A,,Scattered Clouds,10,2011-11-10 10:55:00
5:55 AM,50.0,37.6,62,30.17,10.0,NNE,18.4,29.9,N/A,,Clear,20,2011-11-10 11:55:00
6:54 AM,50.0,35.6,58,30.21,10.0,NNE,13.8,-,N/A,Rain,Light Rain,20,2011-11-10 12:54:00
6:55 AM,50.0,35.8,58,30.22,10.0,NNE,12.7,-,0.00,,Light Drizzle,20,2011-11-10 12:55:00
7:36 AM,50.0,37.4,62,30.22,10.0,NNE,17.3,23.0,N/A,,Clear,20,2011-11-10 13:36:00
7:55 AM,50.0,36.5,60,30.21,10.0,North,13.8,23.0,0.00,,Clear,10,2011-11-10 13:55:00
8:55 AM,50.5,36.3,58,30.22,10.0,North,15.0,-,N/A,,Mostly Cloudy,10,2011-11-10 14:55:00
9:55 AM,51.3,36.9,58,30.22,10.0,North,17.3,23.0,N/A,,Mostly Cloudy,10,2011-11-10 15:55:00
10:55 AM,53.2,35.8,52,30.23,10.0,North,17.3,24.2,N/A,,Scattered Clouds,10,2011-11-10 16:55:00
11:55 AM,55.2,36.3,49,30.19,10.0,North,16.1,21.9,N/A,,Mostly Cloudy,360,2011-11-10 17:55:00
12:55 PM,59.2,35.8,42,30.17,10.0,North,19.6,27.6,N/A,,Clear,350,2011-11-10 18:55:00
1:55 PM,59.5,34.9,40,30.15,10.0,North,16.1,-,N/A,,Clear,10,2011-11-10 19:55:00
2:55 PM,60.8,33.1,35,30.15,10.0,North,18.4,25.3,N/A,,Clear,360,2011-11-10 20:55:00
3:55 PM,61.0,29.3,30,30.14,10.0,North,19.6,-,N/A,,Clear,350,2011-11-10 21:55:00
4:55 PM,58.3,29.7,34,30.17,10.0,NNW,13.8,19.6,N/A,,Clear,340,2011-11-10 22:55:00
5:55 PM,55.0,30.0,38,30.20,10.0,North,10.4,-,N/A,,Clear,350,2011-11-10 23:55:00
6:55 PM,53.1,29.5,40,30.22,10.0,NNW,8.1,-,N/A,,Clear,340,2011-11-11 00:55:00
7:55 PM,51.1,30.9,46,30.24,10.0,NNW,9.2,-,N/A,,Clear,330,2011-11-11 01:55:00
8:55 PM,50.2,28.4,43,30.25,10.0,NNW,10.4,-,N/A,,Clear,330,2011-11-11 02:55:00
9:55 PM,48.0,29.7,49,30.27,10.0,NW,5.8,-,N/A,,Clear,320,2011-11-11 03:55:00
10:55 PM,45.1,32.7,62,30.26,10.0,NW,5.8,-,N/A,,Clear,320,2011-11-11 04:55:00
11:55 PM,43.9,30.7,60,30.25,10.0,North,5.8,-,N/A,,Clear,350,2011-11-11 05:55:00